Weather History for Newark Heath, OH

Change the Weather History Date:

Wednesday, October 16, 2013

  Actual Average Record
Temperature  
Mean Temperature 60 °F -  
Max Temperature 66 °F 64 °F 86 °F (1947)
Min Temperature 53 °F 42 °F 23 °F (1939)
Degree Days  
Heating Degree Days 4    
Growing Degree Days 10 (Base 50)    
Moisture  
Dew Point 60 °F    
Average Humidity 88    
Maximum Humidity 94    
Minimum Humidity 75    
Precipitation  
Precipitation 0.17 in - - ()
Sea Level Pressure  
Sea Level Pressure 29.91 in    
Wind  
Wind Speed 6 mph (SSW)    
Max Wind Speed 13 mph    
Max Gust Speed 20 mph    
Visibility 9 miles    
Events Rain    
Averages and records for this station are not official NWS values.
T = Trace of Precipitation, MM = Missing Value Source: NWS Daily Summary

Daily Weather History Graph

Daily Weather History Graph

Search for Another Location

Airport:

Trip Planner

Search our weather history database for the weather conditions in past years. The results will help you decide how hot, cold, wet, or windy it might be!

Date:

Astronomy

Oct. 16, 2013 Rise Set
Actual Time 7:41 AM EDT 6:48 PM EDT
Civil Twilight 7:14 AM EDT 7:15 PM EDT
Nautical Twilight 6:42 AM EDT 7:47 PM EDT
Astronomical Twilight 6:11 AM EDT 8:18 PM EDT
Moon 5:27 PM EDT (10/16) 5:08 AM EDT (10/16)
Length of Visible Light 12h 01m
Length of Day
11h 06m
Waxing Gibbous, 94% of the Moon is Illuminated
Oct 16
Waxing Gibbous
Oct 18
Full
Oct 26
Last Quarter
Nov 3
New
Nov 10
First Quarter

Hourly Weather History & Observations

Time (EDT) Temp. Dew Point Humidity Pressure Visibility Wind Dir Wind Speed Gust Speed Precip Events Conditions
12:54 AM 64.0 °F 60.1 °F 87% 29.95 in 10.0 mi South 6.9 mph - 0.04 in   Overcast
1:54 AM 64.0 °F 61.0 °F 90% 29.94 in 10.0 mi South 4.6 mph - N/A   Overcast
2:54 AM 64.0 °F 61.0 °F 90% 29.94 in 10.0 mi SSW 3.5 mph - 0.00 in Rain Light Rain
3:54 AM 64.0 °F 61.0 °F 90% 29.91 in 10.0 mi SSW 3.5 mph - 0.01 in   Overcast
4:54 AM 63.0 °F 61.0 °F 93% 29.91 in 10.0 mi Calm Calm - 0.00 in   Overcast
5:54 AM 63.0 °F 60.1 °F 90% 29.91 in 10.0 mi Calm Calm - N/A   Mostly Cloudy
6:54 AM 64.0 °F 60.1 °F 87% 29.90 in 10.0 mi South 6.9 mph - N/A   Overcast
7:54 AM 64.0 °F 60.1 °F 87% 29.91 in 10.0 mi South 5.8 mph - N/A   Scattered Clouds
8:14 AM 64.4 °F 60.8 °F 88% 29.92 in 10.0 mi South 8.1 mph - N/A   Overcast
8:37 AM 62.6 °F 60.8 °F 94% 29.94 in 2.5 mi South 9.2 mph - 0.04 in Rain Rain
8:45 AM 62.6 °F 60.8 °F 94% 29.93 in 1.5 mi South 8.1 mph - 0.08 in Rain Rain
8:52 AM 62.6 °F 60.8 °F 94% 29.92 in 2.0 mi South 9.2 mph - 0.11 in Rain Rain
8:54 AM 63.0 °F 61.0 °F 93% 29.91 in 2.0 mi South 9.2 mph - 0.11 in Rain Rain
9:05 AM 62.6 °F 60.8 °F 94% 29.93 in 8.0 mi South 6.9 mph - 0.01 in Rain Light Rain
9:13 AM 62.6 °F 60.8 °F 94% 29.93 in 9.0 mi South 6.9 mph - 0.01 in Rain Light Rain
9:22 AM 62.6 °F 60.8 °F 94% 29.93 in 9.0 mi South 3.5 mph - 0.01 in Rain Light Rain
9:54 AM 64.0 °F 61.0 °F 90% 29.92 in 10.0 mi SSW 4.6 mph - 0.01 in   Overcast
10:54 AM 64.0 °F 61.0 °F 90% 29.91 in 10.0 mi SSW 6.9 mph - 0.00 in   Overcast
11:54 AM 64.0 °F 61.0 °F 90% 29.91 in 4.0 mi South 8.1 mph - N/A   Overcast
12:09 PM 64.4 °F 60.8 °F 88% 29.92 in 10.0 mi SSW 8.1 mph - N/A   Overcast
12:54 PM 64.9 °F 61.0 °F 87% 29.90 in 10.0 mi SSW 10.4 mph 17.3 mph N/A   Overcast
1:37 PM 64.4 °F 60.8 °F 88% 29.90 in 10.0 mi SSW 10.4 mph 19.6 mph N/A   Overcast
1:54 PM 66.0 °F 62.1 °F 87% 29.88 in 10.0 mi SSW 10.4 mph - 0.00 in   Overcast
2:54 PM 66.0 °F 61.0 °F 84% 29.87 in 10.0 mi SSW 12.7 mph - N/A   Overcast
3:54 PM 66.0 °F 61.0 °F 84% 29.86 in 10.0 mi SSW 11.5 mph 17.3 mph N/A   Overcast
4:42 PM 66.2 °F 60.8 °F 83% 29.87 in 10.0 mi South 8.1 mph - N/A   Overcast
4:54 PM 66.0 °F 61.0 °F 84% 29.87 in 10.0 mi West 9.2 mph - N/A   Overcast
5:01 PM 66.2 °F 60.8 °F 83% 29.88 in 10.0 mi WSW 8.1 mph - N/A   Overcast
5:08 PM 66.2 °F 60.8 °F 83% 29.87 in 10.0 mi WSW 8.1 mph - N/A   Overcast
5:54 PM 66.0 °F 60.1 °F 81% 29.86 in 10.0 mi West 6.9 mph - N/A   Overcast
6:10 PM 64.4 °F 59.0 °F 83% 29.88 in 10.0 mi West 11.5 mph - N/A   Overcast
6:18 PM 64.4 °F 59.0 °F 83% 29.88 in 10.0 mi West 8.1 mph - N/A   Overcast
6:54 PM 64.0 °F 55.9 °F 75% 29.87 in 10.0 mi WSW 9.2 mph - N/A   Scattered Clouds
7:54 PM 62.1 °F 55.0 °F 78% 29.90 in 10.0 mi WSW 5.8 mph - N/A   Overcast
8:54 PM 60.1 °F 55.0 °F 83% 29.91 in 10.0 mi Calm Calm - N/A   Mostly Cloudy
9:54 PM 57.0 °F 54.0 °F 89% 29.92 in 10.0 mi NNW 5.8 mph - N/A   Overcast
10:54 PM 55.9 °F 51.1 °F 84% 29.94 in 10.0 mi Calm Calm - N/A   Mostly Cloudy
11:54 PM 53.1 °F 51.1 °F 93% 29.94 in 10.0 mi Calm Calm - N/A   Overcast